Weather History for EHBK - November, 2012

Change the Weather History Date:

Thursday, November 8, 2012

  Actual Average Record
Temperature  
Mean Temperature 47 °F -  
Max Temperature 48 °F 46 °F - ()
Min Temperature 46 °F 36 °F - ()
Degree Days  
Heating Degree Days 18    
Moisture  
Dew Point 42 °F    
Average Humidity 80    
Maximum Humidity 93    
Minimum Humidity 69    
Precipitation  
Precipitation 0.00 in 0.09 in - ()
Sea Level Pressure  
Sea Level Pressure 30.11 in    
Wind  
Wind Speed 16 mph ()    
Max Wind Speed 21 mph    
Max Gust Speed -    
Visibility 7.0 miles    
Events      
T = Trace of Precipitation, MM = Missing Value Source: Averaged Metar Reports

Daily Weather History Graph

Daily Weather History Graph

Search for Another Location

Airport or City:

Trip Planner

Search our weather history database for the weather conditions in past years. The results will help you decide how hot, cold, wet, or windy it might be!

Date:

Astronomy

Nov. 08, 2012 Rise Set
Actual Time 7:41 AM CET 4:59 PM CET
Civil Twilight 7:05 AM CET 5:34 PM CET
Nautical Twilight 6:26 AM CET 6:14 PM CET
Astronomical Twilight 5:47 AM CET 6:52 PM CET
Moon 12:40 AM CET (11/8) 2:07 PM CET (11/8)
Length of Visible Light 10h 28m
Length of Day
9h 17m
Waning Crescent, 35% of the Moon is Illuminated
Nov 8
Waning Crescent
Nov 13
New
Nov 20
First Quarter
Nov 28
Full
Dec 6
Last Quarter

Hourly Weather History & Observations

Time (CET) Temp. Windchill Dew Point Humidity Pressure Visibility Wind Dir Wind Speed Gust Speed Precip Events Conditions
12:25 AM 48.2 °F - 41.0 °F 76% 30.21 in 6.2 mi SW 20.7 mph - N/A   Overcast
12:55 AM 48.2 °F - 41.0 °F 76% 30.21 in 6.2 mi SW 19.6 mph - N/A   Overcast
1:00 AM 48 °F - 41 °F 70% 30.25 in 12 mi SW 20.1 mph - -   Partly Cloudy
1:25 AM 48.2 °F - 41.0 °F 76% 30.21 in 6.2 mi SW 18.4 mph - N/A   Overcast
1:55 AM 48.2 °F - 41.0 °F 76% 30.21 in 6.2 mi SW 18.4 mph - N/A   Overcast
2:25 AM 48.2 °F - 41.0 °F 76% 30.21 in 6.2 mi SW 17.3 mph - N/A   Overcast
2:55 AM 48.2 °F - 41.0 °F 76% 30.18 in 6.2 mi SW 19.6 mph - N/A   Overcast
3:25 AM 48.2 °F - 41.0 °F 76% 30.18 in 6.2 mi SW 18.4 mph - N/A   Overcast
3:55 AM 48.2 °F - 41.0 °F 76% 30.15 in 6.2 mi SW 18.4 mph - N/A   Overcast
4:00 AM 48 °F - 41 °F 69% 30.19 in 12 mi SW 17.9 mph - -   Overcast
4:25 AM 48.2 °F - 41.0 °F 76% 30.15 in 6.2 mi SW 18.4 mph - N/A   Overcast
4:55 AM 48.2 °F - 41.0 °F 76% 30.15 in 6.2 mi SW 18.4 mph - N/A   Overcast
5:25 AM 48.2 °F - 41.0 °F 76% 30.15 in 6.2 mi SW 19.6 mph - N/A   Overcast
5:55 AM 48.2 °F - 41.0 °F 76% 30.12 in 6.2 mi SW 19.6 mph - N/A   Overcast
6:25 AM 48.2 °F - 41.0 °F 76% 30.12 in 6.2 mi SW 18.4 mph - N/A   Overcast
6:55 AM 48.2 °F - 41.0 °F 76% 30.12 in 6.2 mi SW 18.4 mph - N/A   Overcast
7:25 AM 48.2 °F - 41.0 °F 76% 30.12 in 6.2 mi SW 18.4 mph - N/A   Overcast
7:55 AM 48.2 °F - 41.0 °F 76% 30.12 in 6.2 mi SW 16.1 mph - N/A   Overcast
8:25 AM 48.2 °F - 41.0 °F 76% 30.12 in 6.2 mi SW 18.4 mph - N/A   Overcast
8:55 AM 48.2 °F - 41.0 °F 76% 30.12 in 6.2 mi SW 18.4 mph - N/A   Overcast
9:25 AM 48.2 °F - 41.0 °F 76% 30.12 in 6.2 mi SW 18.4 mph - N/A   Overcast
9:55 AM 48.2 °F - 41.0 °F 76% 30.12 in 6.2 mi SW 17.3 mph - N/A   Overcast
10:00 AM 48 °F - 42 °F 72% 30.14 in 15 mi SW 17.9 mph - -   Overcast
10:25 AM 48.2 °F - 41.0 °F 76% 30.12 in 6.2 mi SW 16.1 mph - N/A   Overcast
10:55 AM 48.2 °F - 41.0 °F 76% 30.12 in 6.2 mi SW 17.3 mph - N/A   Overcast
11:25 AM 48.2 °F - 41.0 °F 76% 30.12 in 6.2 mi SW 13.8 mph - N/A   Overcast
11:55 AM 48.2 °F - 42.8 °F 82% 30.09 in 6.2 mi SW 15.0 mph - N/A   Overcast
12:25 PM 48.2 °F - 42.8 °F 82% 30.09 in 6.2 mi SW 13.8 mph - N/A   Overcast
12:55 PM 48.2 °F - 42.8 °F 82% 30.09 in 6.2 mi SW 16.1 mph - N/A   Overcast
1:00 PM 49 °F - 42 °F 69% 30.12 in 15 mi SW 15.7 mph - -   Partly Cloudy
1:25 PM 48.2 °F - 42.8 °F 82% 30.09 in 6.2 mi SW 16.1 mph - N/A   Overcast
1:55 PM 48.2 °F - 42.8 °F 82% 30.06 in 6.2 mi SW 13.8 mph - N/A   Overcast
2:25 PM 48.2 °F - 42.8 °F 82% 30.06 in 4.3 mi WSW 13.8 mph - N/A   Overcast
2:55 PM 48.2 °F - 42.8 °F 82% 30.06 in 6.2 mi SW 13.8 mph - N/A   Overcast
3:25 PM 48.2 °F - 42.8 °F 82% 30.06 in 6.2 mi SW 17.3 mph - N/A   Overcast
3:55 PM 48.2 °F - 42.8 °F 82% 30.06 in 6.2 mi SW 18.4 mph - N/A   Overcast
4:00 PM 48 °F - 42 °F 75% 30.09 in 14 mi SW 17.9 mph - -   Overcast
4:25 PM 48.2 °F - 42.8 °F 82% 30.06 in 6.2 mi SW 15.0 mph - N/A   Overcast
4:55 PM 48.2 °F - 42.8 °F 82% 30.06 in 6.2 mi SW 13.8 mph - N/A   Overcast
5:25 PM 48.2 °F - 42.8 °F 82% 30.06 in 6.2 mi SW 11.5 mph - N/A   Overcast
5:55 PM 46.4 °F 40.7 °F 42.8 °F 87% 30.06 in 6.2 mi SW 12.7 mph - N/A   Overcast
6:25 PM 46.4 °F 40.4 °F 42.8 °F 87% 30.06 in 6.2 mi SW 13.8 mph - N/A   Overcast
6:55 PM 46.4 °F 40.4 °F 42.8 °F 87% 30.06 in 6.2 mi SW 13.8 mph - N/A   Overcast
7:00 PM 47 °F - 43 °F 81% 30.09 in 11 mi SW 15.7 mph - -   Partly Cloudy
7:25 PM 46.4 °F 39.8 °F 42.8 °F 87% 30.06 in 6.2 mi SW 16.1 mph - N/A   Overcast
7:55 PM 46.4 °F 40.1 °F 42.8 °F 87% 30.06 in 6.2 mi SW 15.0 mph - N/A   Overcast
8:25 PM 46.4 °F 40.7 °F 42.8 °F 87% 30.06 in 6.2 mi SW 12.7 mph - N/A   Overcast
8:55 PM 46.4 °F 41.1 °F 42.8 °F 87% 30.06 in 6.2 mi SW 11.5 mph - N/A   Overcast
9:25 PM 46.4 °F 41.1 °F 42.8 °F 87% 30.06 in 6.2 mi SW 11.5 mph - N/A   Overcast
9:55 PM 46.4 °F 41.5 °F 42.8 °F 87% 30.06 in 6.2 mi SW 10.4 mph - N/A   Overcast
10:00 PM 47 °F - 43 °F 81% 30.10 in 9 mi SW 11.2 mph - -   Overcast
10:25 PM 46.4 °F 41.5 °F 42.8 °F 87% 30.06 in 6.2 mi SW 10.4 mph - N/A   Overcast
10:55 PM 46.4 °F 41.5 °F 42.8 °F 87% 30.06 in 6.2 mi SW 10.4 mph - N/A   Overcast
11:25 PM 46.4 °F 41.5 °F 44.6 °F 93% 30.06 in 6.2 mi SW 10.4 mph - N/A   Overcast
11:55 PM 46.4 °F 41.5 °F 44.6 °F 93% 30.06 in 6.2 mi SW 10.4 mph - N/A   Overcast